Hourly Data Report for October 17, 2016

All times are specified in Local Standard Time (LST). Add 1 hour to adjust for Daylight Saving Time where and when it is observed.

GJOA HAVEN A
NUNAVUT

68°38'08.000" N
95°51'01.000" W
46.90 m
2302337
71597
YHK

Download Data

Hourly Data (October 2016)
Hourly Data Report for October 17, 2016
Temp Definition
°C
Dew Point Temp Definition
°C
Rel Hum Definition
%
Wind Dir Definition
10's deg

Wind Spd Definition
km/h
Visibility Definition
km
Stn Press Definition
kPa
Hmdx Definition


Wind Chill Definition


Weather Definition


TIME
00:00 Legend Double Dagger -11.6 -13.1 89 31 18 16.1 101.18   -19 Snow
01:00 Legend Double Dagger -11.8 -13.3 89 31 18 16.1 101.22   -20 Snow
02:00 Legend Double Dagger -12.0 -13.2 91 33 17 16.1 101.26   -20 Snow
03:00 Legend Double Dagger -13.1 -14.3 91 32 21 16.1 101.30   -22 Snow
04:00 Legend Double Dagger -14.3 -15.3 92 30 17 16.1 101.34   -23 LegendNANA
05:00 Legend Double Dagger -13.0 -14.3 90 28 11 16.1 101.38   -19 LegendNANA
06:00 Legend Double Dagger -14.1 -15.4 90 28 13 16.1 101.41   -21 LegendNANA
07:00 Legend Double Dagger -15.7 -16.7 92 29 15 16.1 101.47   -24 LegendNANA
08:00 Legend Double Dagger -14.6 -15.6 92 30 21 16.1 101.48   -24 LegendNANA
09:00 Legend Double Dagger -14.5 -15.5 92 31 22 16.1 101.53   -24 LegendNANA
10:00 Legend Double Dagger -14.2 -15.4 91 30 17 16.1 101.58   -22 LegendNANA
11:00 Legend Double Dagger -14.2 -15.4 91 31 17 16.1 101.61   -22 LegendNANA
12:00 Legend Double Dagger -13.2 -14.5 90 31 21 16.1 101.67   -22 LegendNANA
13:00 Legend Double Dagger -13.8 -15.5 87 29 13 16.1 101.72   -21 LegendNANA
14:00 Legend Double Dagger -14.0 -15.2 91 28 11 16.1 101.75   -20 LegendNANA
15:00 Legend Double Dagger -13.1 -14.3 91 27 9 16.1 101.77   -19 LegendNANA
16:00 Legend Double Dagger -12.6 -14.0 90 30 11 16.1 101.81   -19 LegendNANA
17:00 Legend Double Dagger -12.1 -13.6 89 30 11 16.1 101.84   -18 LegendNANA
18:00 Legend Double Dagger -11.4 -13.4 85 30 11 16.1 101.85   -17 Snow
19:00 Legend Double Dagger -11.2 -13.4 84 27 9 12.9 101.88   -16 LegendNANA
20:00 Legend Double Dagger -9.8 -12.4 82 33 8 16.1 101.88   -14 LegendNANA
21:00 Legend Double Dagger -11.1 -13.0 86 35 11 16.1 101.89   -17 Snow
22:00 Legend Double Dagger -10.4 -12.9 82 35 8 16.1 101.93   -15 Snow
23:00 Legend Double Dagger -10.0 -13.1 78 33 4 16.1 101.96   -12 LegendNANA

Notes on Data Quality.

Legend

  • E = Estimated
  • M = Missing
  • NA = Not Available
  • ‡ = Partner data that is not subject to review by the National Climate Archives
Date modified: